User: anonymous   Login
Location: Elmsmere
(40.9284°N, 73.8207°W)
Time: 11:51:56
(UTC+00:00)
Language:

STARLINK-2715 - Orbit

View from above orbital plane
View from above orbital plane
View from above satellite
View from above satellite

Ground track
Ground track

The orbit data is extracted from the following two-line orbital elements,

1 48697C 21044BM  21271.18540559  .00011948  00000-0  80052-3 0  2719
2 48697  53.0544 179.8013 0002439  57.2811  52.3325 15.06386680    12
Epoch (UTC): 28 September 2021 04:26:59
Eccentricity: 0.0002439
inclination: 53.0544°
perigee height: 545 km
apogee height: 549 km
right ascension of ascending node: 179.8013°
argument of perigee: 57.2811°
revolutions per day: 15.06386680
mean anomaly at epoch: 52.3325°
orbit number at epoch: 1

The dashed part of the orbit path shows where the satellite is in the earth's shadow,  

DLR